Вернуться в каталог

FENGYUN 1C DEB

АктивенLEO
NORAD 32311·DEBRIS·🇨🇳 China

Запущен May 10, 1999 с Taiyuan Satellite Launch Center

Loading…

Ближайшие Пролёты (ближайшие 24 часа)

TLE

УстаревшееSource: Space-Track

Эпоха: Sep 7, 2026, 00:30 UTC

1 32311U 99025CXC 26250.02131265  .00000107  00000-0  21080-3 0  9992
2 32311 101.7234 177.5421 0399348 213.8166 143.6890 13.34198484109141

Отслеживайте FENGYUN 1C DEB в реальном времени с AllMySat

Download on the App Store